Regional Weather Roundup
Issued by NWS

Home | Current Version | Previous Version | Text Only | Print | Product List | Glossary Off
Versions: 1 2 3 4 5 6 7 8 9 10 11 12 13 14 15 16 17 18 19 20 21 22 23 24 25 26 27 28 29 30 31 32 33 34 35 36 37 38 39 40 41 42 43 44 45 46 47 48 49 50

000
ASUS43 KLSX 281007
RWRMO

WEATHER SUMMARY FOR MISSOURI
NATIONAL WEATHER SERVICE SPRINGFIELD MO
500 AM CDT TUE APR 28 2015

NOTE: "FAIR" INDICATES FEW OR NO CLOUDS BELOW 12,000 FEET WITH NO
       SIGNIFICANT WEATHER AND/OR OBSTRUCTIONS TO VISIBILITY.
       CURRENT SKY AND/OR WEATHER CONDITIONS ARE NOT AVAILABLE FOR
       CHILLICOTHE AND FARMINGTON.

MOZ001>031-035>038-043-044-053-054-281100-
...NORTHERN AND WESTERN MISSOURI...

CITY           SKY/WX    TMP DP  RH WIND       PRES   REMARKS
KANSAS CTY INT PTCLDY    45  36  70 NE6       30.15R
KANSAS C DTWN  MOCLDY    47  40  76 CALM      30.14R
LEE`S SUMMIT   MOCLDY    45  37  73 N6        30.14R
ST JOSEPH      PTCLDY    41  37  86 CALM      30.16S
CHILLICOTHE      N/A     43  38  82 CALM      30.17R
KIRKSVILLE     CLEAR     38  37  97 NW3       30.15S

$$
MOZ066>068-077>081-088>096-101>105-281100-
...SOUTHWEST MISSOURI...

CITY           SKY/WX    TMP DP  RH WIND       PRES   REMARKS
SPRINGFIELD    PTCLDY    40  34  79 S3        30.08R
JOPLIN         PTCLDY    47  38  71 NE6       30.09S

$$
MOZ032>034-039>042-045>050-055>058-069>072-281100-
...CENTRAL MISSOURI...

CITY           SKY/WX    TMP DP  RH WIND       PRES   REMARKS
COLUMBIA       CLEAR     44  37  76 NE8       30.12S
JEFFERSON CITY CLEAR     40  36  86 CALM      30.12S
ROLLA          CLEAR     40  35  83 NE5       30.08S
SEDALIA        PTCLDY    46  37  71 N5        30.14R
WHITEMAN AFB   PTCLDY    41  36  83 NE2       30.12R
WARRENSBURG    MOCLDY    43  36  75 N5        30.13S
OSAGE BEACH    CLEAR     45  36  70 NE7       30.09F

$$
MOZ051-052-059>065-281100-
...EAST CENTRAL MISSOURI...

CITY           SKY/WX    TMP DP  RH WIND       PRES   REMARKS
ST LOUIS INTL  CLEAR     44  37  76 CALM      30.12R
SPIRIT OF STL  CLEAR     39  37  92 CALM      30.11S
ST CHARLES     CLEAR     42  39  89 N5        30.12R

$$
MOZ072>076-082>087-097>100-106>115-281100-
...SOUTH CENTRAL AND SOUTHEAST MISSOURI...

CITY           SKY/WX    TMP DP  RH WIND       PRES   REMARKS
CAPE GIRARDEAU CLEAR     46  37  71 NE9       30.04F
FARMINGTON     CLEAR     45  36  70 N5        30.10S
POPLAR BLUFF   PTCLDY    47  38  71 CALM      30.02F
WEST PLAINS    PTCLDY    45  36  70 NE3       30.07R

$$


USA.gov is the U.S. government's official web portal to all federal, state and local government web resources and services.